Location: *
(32.8667°N, 13.1833°E)
Time: 06:48:01
(UTC+00:00)

Cosmos 2151 - Pass Details

Date: 18 July 2019
Orbit: 581 x 602 km, 82.5° (Epoch: 25 August)

Event Time Altitude Azimuth Distance (km) Brightness Sun altitude
Exits shadow 19:47:58 13° 190° (S) 1,710 5.0 -17.2°
Maximum altitude 19:51:42 80° 277° (W) 611 3.0 -17.8°
Drops below altitude 10° 19:56:00 10° 4° (N) 1,945 6.1 -18.4°
Sets 19:58:13 0° 5° (N) 2,853 7.0 -18.8°
